Location: Tarleton Observatory
(32.2162°N, 98.0976°W)
Time: 08:47:22
(UTC-05:00)

Daily predictions for brighter satellites

Satellite Brightness Start Highest point End
(mag) Time Altitude Azimuth Time Altitude Azimuth Time Altitude Azimuth
USA 215 3.9 19:30:41 10° ENE 19:36:30 34° SE 19:42:17 10° S
ATLAS 5 CENTAUR R/B 3.3 19:34:49 10° WSW 19:39:13 38° NW 19:43:55 10° NNE
Okean 3 Rocket 3.9 19:36:21 10° N 19:40:54 76° W 19:45:25 10° S
Cosmos 1544 3.9 19:40:14 10° SSE 19:43:31 30° E 19:46:50 10° NNE
SAR-Lupe-4 4.2 19:41:00 10° SE 19:44:14 33° ENE 19:47:28 10° N
Resurs 01 Rocket 2.8 19:48:03 10° ESE 19:51:27 22° ENE 19:54:52 10° NNE
ATLAS CENTAUR R/B 4.2 19:50:45 10° WNW 19:53:18 17° WSW 19:55:44 10° SSW
SJ-6B 3.1 19:53:01 10° SSE 19:56:50 45° ENE 20:00:44 10° N
Cosmos 1484 Rocket 3.0 19:55:38 10° S 19:59:27 75° W 20:03:22 10° NNW
COSMO-SKYMED 1 3.7 19:55:28 10° N 19:59:39 48° WNW 20:03:49 10° SSW
ALOS 3.8 19:58:30 12° E 20:00:36 16° ENE 20:03:26 10° NNE
MSX 4.4 19:56:00 10° S 20:01:39 64° WSW 20:07:23 10° NNW
Cosmos 1076 Rocket 3.6 20:00:39 10° N 20:05:01 82° W 20:09:21 10° S
Cosmos-2242 3.2 20:06:47 10° S 20:11:08 80° W 20:15:32 10° N
ASTEX 1 4.1 20:08:56 10° NNE 20:13:10 29° E 20:17:22 10° SSE
SL-19 R/B 4.4 20:07:51 10° SSE 20:13:27 86° WSW 20:19:25 10° NNW
Meteor 1-29 3.5 20:10:16 10° NNE 20:13:32 36° E 20:16:44 10° SSE
Nadezhda 4 Rocket 4.1 20:08:19 10° N 20:14:23 51° E 20:20:21 10° SSE
Cosmos 1758 4.0 20:10:30 10° SSW 20:14:30 58° W 20:18:33 10° N
Cosmos 1766 Rocket 3.7 20:11:51 10° N 20:16:11 74° W 20:20:29 10° S
SEDSat Delta rocket 4.1 20:10:18 10° W 20:16:43 72° SSW 20:21:45 19° ESE
ISS -0.6 20:14:41 10° WNW 20:16:50 16° NW 20:19:01 10° N
SAR-Lupe-1 4.3 20:20:12 10° S 20:23:44 69° WSW 20:27:16 10° NNW
Cosmos 1092 Rocket 4.2 20:19:31 10° N 20:25:24 45° E 20:31:12 10° SSE
GPS 2-04 Rocket1 3.0 20:23:15 10° WNW 20:26:35 46° N 20:28:00 28° NE
Cosmos 1452 Rocket 4.2 20:22:49 10° NNW 20:27:57 57° WSW 20:33:04 10° S
CENTAUR R/B 2.6 20:23:15 10° SSW 20:29:08 78° WNW 20:35:43 10° NNE
NOAA 12 4.2 20:24:32 10° S 20:29:47 80° WSW 20:35:05 10° NNW
Cosmos 2251 Rocket 3.8 20:26:07 10° S 20:30:58 40° E 20:35:50 10° NNE
Meteor 1-21 Rocket 4.3 20:29:00 10° N 20:34:32 79° W 20:40:04 10° S
Cosmos 1634 Rocket 4.0 20:30:48 10° SSE 20:36:52 55° E 20:42:54 10° NNE
H-2A R/B 4.4 20:41:19 21° NNE 20:41:19 21° NNE 20:43:00 10° NNE
Cosmos 1346 4.1 20:37:54 10° NNW 20:40:45 46° W 20:43:37 10° S
Helios 1A 2.8 20:40:48 13° SSE 20:44:28 81° ENE 20:48:42 10° N
Cosmos 1842 Rocket 3.7 20:40:16 10° SSW 20:44:33 72° W 20:48:55 10° N
Cosmos 1943 Rocket 3.6 20:41:16 10° NNE 20:44:22 19° NE 20:44:22 19° NE
FREGAT/IRIS 4.3 20:42:27 10° SSW 20:45:20 36° W 20:48:13 10° NNW
Cosmos 1420 Rocket 4.2 20:40:50 10° NNW 20:46:08 74° WSW 20:51:26 10° S
AVUM R/B 4.1 20:43:59 10° SW 20:46:48 43° WNW 20:48:16 23° N
Cosmos 1500 Rocket 3.4 20:43:17 10° N 20:47:45 81° E 20:51:23 15° S
OAO 3 Rocket 3.1 20:46:06 10° WNW 20:50:51 80° SSW 20:51:59 52° ESE
Cosmos 1943 3.8 20:48:29 10° SSW 20:54:00 58° WNW 20:59:34 10° NNE
Spot 2 Rocket 3.7 20:49:06 10° S 20:54:06 71° WSW 20:59:08 10° NNW
HJ-1C 4.4 20:53:25 15° S 20:55:56 45° W 20:59:11 10° NNW
Cosmos 2369 Rocket 2.1 20:51:36 10° NNW 20:57:14 63° ENE 20:58:45 46° SE
Cosmos 1733 4.0 20:55:18 10° SSW 20:59:04 52° W 21:02:50 10° N
BREEZE-M DEB (TANK) 4.4 20:43:52 10° NW 21:00:53 59° SW 21:03:53 26° SSE
Cosmos 1674 3.9 21:06:07 10° NNW 21:09:48 42° W 21:11:58 21° SSW
Cosmos 2263 4.2 21:05:51 10° NNW 21:11:27 59° ENE 21:11:27 59° ENE
OAO 1 4.4 21:07:13 10° WSW 21:12:44 74° SSE 21:12:57 73° SE
USA 215 3.8 21:13:14 10° NNE 21:19:33 54° NW 21:25:51 10° WSW
OAO 1 Rocket 4.4 21:17:46 10° WNW 21:22:53 81° W 21:22:53 81° W
Resurs 01 Rocket 3.7 21:24:01 10° SSW 21:27:44 26° W 21:31:28 10° NW
Cosmos 1627 Rocket 4.4 21:23:20 10° N 21:29:35 83° W 21:31:13 53° S
ALOS 3.4 21:37:03 38° WSW 21:37:40 40° W 21:42:03 10° NNW
BREEZE-M DEB (TANK) 4.2 21:50:32 10° SW 22:07:27 75° NW 22:07:36 75° NW
Cosmos 1943 Rocket 4.3 22:23:56 10° NW 22:25:55 22° NW 22:25:55 22° NW
